Location: Unspecified
(52.4292°N, 19.3359°E)
Time: 17:46:41
(UTC+02:00)

Transit 2A Rocket - Pass Details

Date: 28 May 2024
Orbit: 583 x 910 km, 66.7° (Epoch: 22 June)

Event Time Altitude Azimuth Distance (km) Brightness Sun altitude
Rises 02:49:34 0° 189° (S) 2,999 - -10.9°
Reaches altitude 10° 02:51:55 10° 181° (S) 2,138 - -10.7°
Exits shadow 02:51:57 10° 181° (S) 2,123 6.8 -10.7°
Maximum altitude 02:56:21 36° 115° (ESE) 1,150 6.0 -10.3°
Drops below altitude 10° 03:01:14 10° 50° (NE) 2,353 8.9 -9.9°
Sets 03:03:55 0° 43° (NE) 3,343 10.4 -9.7°
